EW5447 Weather Reports


Display with metric or nautical units.
time (UTC)temp
F
wind
direction
speed
MPH
gust
MPH
rain 1hr
in
rain 24hr
in
rain mn
in
humidity
%
barometer
mb
20260906113013 53 333 0.0 0.0 0.00 0.23 0.00 92 1015.9
20260906111509 53 11 0.0 0.0 0.00 0.23 0.00 92 1016.1
20260906110008 53 11 0.0 2.0 0.00 0.23 0.00 92 1015.9
20260906104514 53 48 1.0 3.0 0.00 0.23 0.00 93 1016.0
20260906103006 52 9 0.0 2.0 0.00 0.23 0.00 93 1016.0
20260906101516 52 46 0.0 0.0 0.00 0.23 0.00 93 1015.9
20260906100005 52 332 0.0 0.0 0.00 0.23 0.00 93 1015.8
20260906094504 52 9 0.0 0.0 0.00 0.23 0.00 93 1015.8
20260906093002 52 9 0.0 0.0 0.00 0.23 0.00 92 1015.8
20260906091501 52 55 0.0 0.0 0.00 0.23 0.00 91 1015.7
20260906090101 52 28 0.0 0.0 0.00 0.23 0.00 92 1015.7
20260906084559 53 88 0.0 0.0 0.00 0.23 0.00 91 1015.8
20260906083056 53 88 0.0 0.0 0.00 0.23 0.00 91 1015.7
20260906081554 54 203 0.0 0.0 0.00 0.23 0.00 89 1015.7
20260906080059 55 333 0.0 2.0 0.00 0.23 0.00 90 1015.8
20260906074551 55 5 0.0 0.0 0.00 0.23 0.00 90 1015.8
20260906073052 55 334 0.0 2.0 0.00 0.23 0.00 89 1015.9
20260906071550 56 122 0.0 2.0 0.00 0.23 0.00 90 1016.0
20260906070044 56 317 2.0 4.0 0.00 0.23 0.00 90 1015.8
20260906064547 56 328 1.0 2.0 0.00 0.23 0.23 90 1016.1
20260906063043 57 337 1.0 3.0 0.00 0.23 0.23 90 1016.2
20260906061543 57 331 0.0 0.0 0.00 0.23 0.23 90 1016.2
20260906060042 57 58 0.0 0.0 0.00 0.23 0.23 89 1016.3
20260906054556 57 58 0.0 0.0 0.00 0.23 0.23 89 1016.2
20260906053041 57 55 0.0 3.0 0.00 0.23 0.23 89 1016.2
20260906051601 57 46 0.0 2.0 0.00 0.23 0.23 88 1016.4
20260906050044 57 111 0.0 2.0 0.00 0.23 0.23 89 1016.5
20260906044548 58 193 0.0 0.0 0.00 0.23 0.23 86 1016.3
20260906043040 58 60 0.0 1.0 0.03 0.23 0.23 85 1016.3
20260906041538 58 360 0.0 1.0 0.06 0.23 0.23 87 1016.3
20260906040114 58 18 2.0 4.0 0.11 0.23 0.23 88 1016.1
20260906034537 58 25 1.0 3.0 0.12 0.23 0.23 86 1016.0
20260906033048 60 17 1.0 3.0 0.10 0.20 0.20 82 1015.9
20260906031535 61 105 0.0 2.0 0.17 0.17 0.17 79 1015.7
20260906030034 62 247 3.0 11.0 0.12 0.12 0.12 70 1015.5
20260906024533 62 223 3.0 8.0 0.11 0.11 0.11 71 1015.1
20260906023032 64 304 8.0 13.0 0.10 0.10 0.10 67 1014.7
20260906021531 68 258 5.0 15.0 0.00 0.00 0.00 54 1014.3
20260906020030 70 307 4.0 8.0 0.00 0.00 0.00 47 1013.9
20260906014530 71 339 4.0 10.0 0.00 0.00 0.00 45 1013.5
20260906013030 73 248 2.0 5.0 0.00 0.00 0.00 36 1013.3
20260906011526 73 231 3.0 7.0 0.00 0.00 0.00 36 1013.2
20260906010025 74 209 3.0 6.0 0.00 0.00 0.00 36 1013.2
20260906004526 74 184 0.0 3.0 0.00 0.00 0.00 36 1013.2
20260906003024 74 355 1.0 7.0 0.00 0.00 0.00 35 1013.4
20260906001524 74 302 5.0 9.0 0.00 0.00 0.00 36 1013.4
20260906000022 75 280 4.0 9.0 0.00 0.00 0.00 35 1013.3
20260905234521 76 268 7.0 12.0 0.00 0.00 0.00 35 1013.2
20260905233019 75 316 3.0 8.0 0.00 0.00 0.00 37 1013.3
20260905231520 75 254 2.0 8.0 0.00 0.00 0.00 35 1013.6
20260905230015 76 237 5.0 9.0 0.00 0.00 0.00 35 1013.7
20260905224532 78 146 4.0 10.0 0.00 0.00 0.00 33 1013.6
20260905223013 78 248 3.0 14.0 0.00 0.00 0.00 32 1014.0
20260905221509 78 340 3.0 12.0 0.00 0.00 0.00 34 1014.1
20260905220006 77 251 1.0 7.0 0.00 0.00 0.00 36 1014.2
20260905214502 76 142 3.0 10.0 0.00 0.00 0.00 36 1014.4
20260905213104 76 200 6.0 14.0 0.00 0.00 0.00 37 1014.6
20260905211559 75 274 6.0 12.0 0.00 0.00 0.00 37 1014.8
20260905210104 75 107 4.0 9.0 0.00 0.00 0.00 38 1014.9
20260905204553 74 250 6.0 14.0 0.00 0.00 0.00 37 1014.9
20260905203050 73 74 3.0 9.0 0.00 0.00 0.00 39 1015.1
20260905201549 73 209 6.0 10.0 0.00 0.00 0.00 40 1015.2
20260905200045 72 263 2.0 8.0 0.00 0.00 0.00 41 1015.3
20260905194547 71 213 1.0 6.0 0.00 0.00 0.00 45 1015.6
20260905193036 70 142 1.0 7.0 0.00 0.00 0.00 46 1015.9
20260905191533 70 320 2.0 8.0 0.00 0.00 0.00 47 1016.2
20260905190029 69 5 2.0 6.0 0.00 0.00 0.00 48 1016.4
20260905184530 68 360 2.0 6.0 0.00 0.00 0.00 51 1016.6
20260905183023 67 355 1.0 3.0 0.00 0.00 0.00 55 1016.8
20260905181518 65 37 0.0 3.0 0.00 0.00 0.00 58 1017.0
20260905180014 64 187 1.0 5.0 0.00 0.00 0.00 61 1017.1
20260905174510 62 190 0.0 3.0 0.00 0.00 0.00 64 1017.3
20260905173007 62 144 0.0 2.0 0.00 0.00 0.00 65 1017.4
20260905171504 61 355 1.0 3.0 0.00 0.00 0.00 67 1017.5
20260905170001 60 113 1.0 2.0 0.00 0.00 0.00 69 1017.5
20260905164606 59 147 0.0 4.0 0.00 0.00 0.00 72 1017.7
20260905163053 57 143 1.0 2.0 0.00 0.00 0.00 75 1017.9
20260905161604 56 140 1.0 3.0 0.00 0.00 0.00 79 1018.0
20260905160045 55 273 0.0 2.0 0.00 0.00 0.00 85 1018.2
20260905154545 53 344 0.0 2.0 0.00 0.00 0.00 89 1018.3
20260905153037 51 33 0.0 3.0 0.00 0.00 0.00 93 1018.3
20260905151532 49 186 0.0 0.0 0.00 0.00 0.00 95 1018.4
20260905150030 48 5 0.0 0.0 0.00 0.00 0.00 95 1018.5
20260905144526 46 309 0.0 0.0 0.00 0.00 0.00 95 1018.4
20260905143021 45 304 0.0 0.0 0.00 0.00 0.00 94 1018.4
20260905141518 44 92 0.0 0.0 0.00 0.00 0.00 93 1018.1
20260905140016 44 92 0.0 0.0 0.00 0.00 0.00 93 1018.1
20260905134513 44 11 0.0 0.0 0.00 0.01 0.00 93 1017.9
20260905133010 44 9 0.0 0.0 0.00 0.01 0.00 92 1017.9
20260905131511 45 340 0.0 0.0 0.00 0.01 0.00 93 1017.7
20260905130007 45 315 0.0 0.0 0.00 0.01 0.00 93 1017.6
20260905124506 45 288 0.0 0.0 0.00 0.03 0.00 92 1017.7
20260905123003 46 103 0.0 0.0 0.00 0.03 0.00 92 1017.8
20260905121502 46 103 0.0 0.0 0.00 0.03 0.00 92 1017.7
20260905114603 47 103 0.0 0.0 0.00 0.03 0.00 93 1017.8